Вернуться в каталог

CHECKMATE 1

АктивенВоенныеPO
NORAD 56168·PAYLOAD·🇺🇸 United States

Запущен Apr 2, 2023 с Vandenberg Space Force Base

Loading…

Ближайшие Пролёты (ближайшие 24 часа)

TLE

СвежийSource: Space-Track

Эпоха: Sep 14, 2026, 04:36 UTC

1 56168U 23050G   26257.19213473  .00000068  00000-0  50350-4 0  9999
2 56168  81.0080 346.6181 0012260 107.8795 252.3700 13.84958852174411

Отслеживайте CHECKMATE 1 в реальном времени с AllMySat

Download on the App Store